Stowe, USA 16 day weather forecast

Slopes altitude range 390 m - 1135m

Number of lifts: 12 Pistes: 68km

In some cases the lift and piste totals shown are for the ski domain (e.g. Three Valleys) rather than individual resort (e.g. Courchevel)

Overview

The 16 day weather forecast is fully updated 4 times every day.

    • Wed 26 JUN 2019
    • Wed 26
    • 15C 19C
    • Thu 27 JUN 2019
    • Thu 27
    • 16C 19C
    • Fri 28 JUN 2019
    • Fri 28
    • 14C 18C
    • Sat 29 JUN 2019
    • Sat 29
    • 14C 17C
    • Sun 30 JUN 2019
    • Sun 30
    • 14C 16C
    • Mon 01 JUL 2019
    • Mon 01
    • 11C 15C
    • Tue 02 JUL 2019
    • Tue 02
    • 16C 17C
    • Wed 03 JUL 2019
    • Wed 03
    • 16C 20C
    • Thu 04 JUL 2019
    • Thu 04
    • 17C 20C
    • Fri 05 JUL 2019
    • Fri 05
    • 20C 22C
    • Sat 06 JUL 2019
    • Sat 06
    • 18C 19C
    • Sun 07 JUL 2019
    • Sun 07
    • 13C 17C
    • Mon 08 JUL 2019
    • Mon 08
    • 10C 14C
    • Tue 09 JUL 2019
    • Tue 09
    • 13C 16C
    • Wed 10 JUL 2019
    • Wed 10
    • 8C 13C
    • Thu 11 JUL 2019
    • Thu 11
    • 11C 16C

Date:

Time Type 0°C level Temp Chill Snow Cloud Speed Gust Dir Press
3:00 4365m 17°C 17_6 0cm 0% 6mph 8mph 1012mB
6:00 4294m 16°C 16_6 0cm 9% 6mph 10mph 1014mB
9:00 4050m 15°C 15_5 0cm 44% 5mph 7mph 1015mB
12:00 3939m 19°C 19_6 0cm 24% 6mph 10mph 1016mB
15:00 3664m 23°C 23_7 0cm 11% 7mph 9mph 1016mB
18:00 3641m 25°C 25_6 0cm 5% 6mph 11mph 1014mB
21:00 3711m 25°C 25_4 0cm 24% 4mph 7mph 1014mB
0:00 3704m 19°C 19_5 0cm 49% 5mph 6mph 1015mB
3:00 3677m 17°C 17_6 0cm 12% 6mph 11mph 1016mB
6:00 3610m 17°C 17_7 0cm 11% 7mph 19mph 1017mB
9:00 3707m 16°C 16_6 0cm 0% 6mph 10mph 1018mB
12:00 3646m 19°C 19_8 0cm 0% 8mph 14mph 1019mB
15:00 3653m 22°C 22_7 0cm 0% 7mph 9mph 1019mB
18:00 3627m 25°C 25_7 0cm 0% 7mph 14mph 1018mB
21:00 3628m 25°C 25_8 0cm 0% 8mph 15mph 1017mB
0:00 3470m 21°C 21_7 0cm 4% 7mph 16mph 1018mB
3:00 3509m 16°C 16_2 0cm 26% 2mph 3mph 1019mB
6:00 3458m 15°C 15_4 0cm 26% 4mph 5mph 1019mB
9:00 3657m 14°C 14_3 0cm 0% 3mph 5mph 1020mB
12:00 3636m 18°C 18_7 0cm 39% 7mph 12mph 1021mB
15:00 3798m 22°C 22_5 0cm 100% 5mph 5mph 1020mB
18:00 3884m 25°C 25_3 0cm 100% 3mph 4mph 1019mB
21:00 3874m 24°C 24_1 0cm 100% 1mph 3mph 1018mB
0:00 3868m 21°C 21_2 0cm 100% 2mph 3mph 1018mB
3:00 4061m 17°C 17_2 0cm 46% 2mph 3mph 1017mB
6:00 3848m 16°C 16_7 0cm 27% 7mph 8mph 1016mB
9:00 3800m 14°C 14_4 0cm 2% 4mph 5mph 1015mB
12:00 3701m 17°C 17_4 0cm 51% 4mph 7mph 1014mB
15:00 3852m 20°C 20_6 0cm 73% 6mph 6mph 1013mB
18:00 3790m 22°C 22_5 0cm 86% 5mph 7mph 1012mB
21:00 3621m 23°C 23_9 0cm 40% 9mph 15mph 1010mB
0:00 3582m 21°C 21_7 0cm 27% 7mph 20mph 1010mB
3:00 3372m 17°C 17_4 0cm 5% 4mph 6mph 1010mB
6:00 3141m 15°C 15_2 0cm 2% 2mph 2mph 1009mB
9:00 2885m 14°C 14_3 0cm 46% 3mph 4mph 1009mB
12:00 2407m 16°C 16_10 0cm 54% 10mph 16mph 1010mB
15:00 2248m 16°C 16_10 0cm 6% 10mph 14mph 1010mB
18:00 2325m 17°C 17_11 0cm 48% 11mph 18mph 1009mB
21:00 2662m 14°C 14_10 0cm 92% 10mph 17mph 1009mB
0:00 3151m 14°C 14_4 0cm 66% 4mph 5mph 1010mB
3:00 3600m 13°C 13_4 0cm 25% 4mph 5mph 1011mB
6:00 3760m 12°C 12_3 0cm 38% 3mph 4mph 1011mB
9:00 3654m 11°C 11_2 0cm 3% 2mph 2mph 1013mB
12:00 3662m 15°C 15_3 0cm 6% 3mph 4mph 1014mB
15:00 3826m 20°C 20_6 0cm 78% 6mph 7mph 1014mB
18:00 3925m 21°C 21_6 0cm 89% 6mph 8mph 1013mB
21:00 3830m 22°C 22_2 0cm 95% 2mph 4mph 1012mB
0:00 3858m 19°C 19_2 0cm 84% 2mph 3mph 1011mB
3:00 3835m 17°C 17_5 0cm 100% 5mph 6mph 1011mB
6:00 3651m 16°C 16_3 0cm 100% 3mph 5mph 1010mB
9:00 3767m 16°C 16_5 0cm 100% 5mph 6mph 1010mB
12:00 3755m 17°C 17_10 0cm 100% 10mph 15mph 1010mB
15:00 3601m 20°C 20_8 0cm 75% 8mph 14mph 1009mB
18:00 3512m 24°C 24_4 0cm 59% 4mph 8mph 1008mB
21:00 3827m 24°C 24_5 0cm 12% 5mph 8mph 1007mB
0:00 3877m 21°C 21_6 0cm 7% 6mph 7mph 1008mB
3:00 4065m 18°C 18_6 0cm 0% 6mph 7mph 1009mB
6:00 4217m 17°C 17_4 0cm 0% 4mph 6mph 1009mB
9:00 4320m 16°C 16_5 0cm 0% 5mph 6mph 1009mB
12:00 4345m 20°C 20_5 0cm 6% 5mph 10mph 1010mB
15:00 4399m 24°C 24_5 0cm 61% 5mph 6mph 1010mB
18:00 4435m 26°C 26_3 0cm 47% 3mph 6mph 1009mB
21:00 4432m 26°C 26_1 0cm 100% 1mph 5mph 1008mB
0:00 4428m 23°C 23_4 0cm 100% 4mph 5mph 1009mB
3:00 4476m 20°C 20_4 0cm 86% 4mph 5mph 1010mB
6:00 4238m 19°C 19_4 0cm 79% 4mph 5mph 1009mB
9:00 4120m 18°C 18_5 0cm 79% 5mph 6mph 1009mB
12:00 4092m 20°C 20_6 0cm 90% 6mph 14mph 1009mB
15:00 4181m 23°C 23_9 0cm 92% 9mph 16mph 1009mB
18:00 4245m 25°C 25_9 0cm 78% 9mph 13mph 1009mB
21:00 4288m 22°C 22_7 0cm 90% 7mph 12mph 1008mB
0:00 4479m 22°C 22_6 0cm 95% 6mph 14mph 1007mB
3:00 4366m 21°C 21_6 0cm 100% 6mph 13mph 1008mB
6:00 4452m 20°C 20_6 0cm 87% 6mph 16mph 1007mB
9:00 4518m 20°C 20_6 0cm 97% 6mph 16mph 1007mB
12:00 4617m 22°C 22_9 0cm 62% 9mph 14mph 1008mB
15:00 4534m 24°C 24_8 0cm 60% 8mph 11mph 1008mB
18:00 4637m 27°C 27_8 0cm 42% 8mph 14mph 1007mB
21:00 4591m 27°C 27_10 0cm 9% 10mph 17mph 1007mB
0:00 4443m 24°C 24_6 0cm 5% 6mph 13mph 1008mB
Afternoon 0mm 0 4362m 19°C 19_8 0cm 12% 8mph 11mph 1012mB
Morning 0.0208333mm 0 4332m 21°C 21_3 0cm 0% 3mph 4mph 1013mB
Afternoon 0mm 0 3920m 17°C 17_3 0cm 42% 3mph 5mph 1015mB
Morning 0.0625mm 0.1875 3482m 20°C 20_5 0cm 100% 5mph 13mph 1012mB
Afternoon 0mm 0 3900m 14°C 14_5 0cm 0% 5mph 8mph 1015mB
Morning 0mm 0 3889m 17°C 17_6 0cm 8% 6mph 7mph 1010mB
Afternoon 1.47917mm 2.875 3840m 16°C 16_3 0cm 100% 3mph 6mph 1005mB
Morning 0.0833333mm 0.25 3802m 16°C 16_5 0cm 87% 5mph 15mph 1011mB
Afternoon 0mm 0 2769m 13°C 13_5 0cm 0% 5mph 11mph 1016mB
Morning 0.0416667mm 0.125 2832m 18°C 18_8 0cm 8% 8mph 23mph 1017mB
Afternoon 0mm 0 3597m 16°C 16_5 0cm 69% 5mph 9mph 1020mB
Morning 0.166667mm 0.5 3559m 20°C 20_6 0cm 43% 6mph 8mph 1018mB

16 day outlook at a glance

Forecast issued: 6/26/2019 8:00:17 AM

Chat

Your comments and questions. In a resort? Let us know what it's like!


Characters left 250

For terms and conditions see Readers Comments on the Cookie and privacy policy page.